Theta_e
349 352 355 357 364 339 341 343 345 348 350 348 349 354 358 362 361 365 350 350 350 350 352 354 351 351 350 350 349 349 349 346 344 343 345 343 344 349 346 345 342 340 349 353 352 353 353 352 352
356 358 358 365 342 344 344 344 347 347 347 346 347 350 354 364 356 353 350 350 351 351 351 353 351 352 350 349 348 348 347 347 346 345 347 344 348 347 351 348 346 340 342 347 348 352 353 352 351
359 358 366 349 343 343 344 346 346 344 344 346 348 352 356 358 354 353 350 350 351 351 351 355 350 350 350 349 348 348 348 348 346 347 348 347 348 349 351 348 347 350 345 340 346 348 352 351 351
359 361 361 344 344 342 343 346 339 342 343 345 349 357 355 353 353 352 350 351 350 352 355 350 350 352 349 349 350 349 350 349 349 349 349 348 349 350 349 346 346 348 349 346 344 344 350 351 352
358 358 348 344 344 342 345 345 340 342 345 345 347 355 358 354 353 350 351 351 352 355 356 353 348 350 348 346 347 348 349 348 350 354 353 347 345 346 346 348 347 348 349 349 344 344 348 349 352
360 345 344 344 345 344 345 344 342 344 344 346 349 353 357 354 353 352 352 351 351 353 353 355 351 350 349 350 346 345 347 348 351 353 353 354 349 347 346 346 345 348 347 348 348 344 343 346 351
353 348 342 341 343 343 344 343 343 341 341 346 345 353 355 354 353 353 352 351 351 352 352 354 355 354 354 354 354 349 348 349 351 352 350 350 349 348 352 349 345 344 345 345 346 346 348 342 350
347 346 343 342 341 344 344 342 342 341 346 347 349 353 357 354 354 353 353 353 351 351 352 355 355 355 354 354 351 350 352 350 349 350 348 348 350 351 350 348 343 344 346 344 345 348 352 343 350
345 348 351 341 341 343 343 341 343 344 347 347 347 347 352 353 354 353 354 354 353 351 351 356 354 356 355 354 354 350 350 350 349 352 352 346 351 352 352 349 350 342 349 348 347 346 346 350 343
346 352 347 339 340 341 342 342 346 343 350 350 349 353 353 354 354 353 353 354 352 351 350 352 355 355 355 353 354 352 352 351 350 351 352 348 348 351 351 352 346 342 349 349 346 344 344 344 348
344 345 337 337 340 341 342 343 344 346 347 347 349 353 353 353 353 353 352 352 352 351 351 352 351 355 354 351 352 351 350 348 349 351 350 349 352 349 346 349 348 346 346 349 347 348 348 348 349
342 339 337 336 337 340 343 342 344 345 346 347 348 351 352 352 353 352 351 351 351 352 353 353 353 352 352 352 348 352 350 349 349 349 350 351 351 349 350 350 351 350 349 351 350 350 347 349 350
340 338 336 336 336 339 341 343 345 347 346 347 348 350 351 351 350 350 350 350 351 354 355 355 355 355 354 353 352 353 352 351 347 350 352 351 352 352 346 350 348 349 351 348 352 351 349 348 350
338 336 335 335 336 338 341 342 344 348 350 347 348 350 350 350 349 349 351 351 351 353 356 356 357 357 356 355 354 351 353 350 350 350 350 351 348 348 345 344 345 349 352 352 350 350 351 350 348
337 335 335 335 336 337 339 341 343 352 351 350 349 350 350 350 349 350 351 353 353 353 355 357 358 356 355 355 353 350 349 348 346 346 351 347 345 344 344 341 343 348 351 352 352 352 351 351 351
337 336 337 335 334 335 337 347 343 349 351 352 350 350 351 351 351 351 352 354 355 355 356 358 358 354 354 352 351 350 350 343 341 341 344 347 343 343 341 341 345 349 351 351 351 351 351 351 351
337 338 340 335 332 334 336 340 340 345 349 353 352 351 351 353 354 353 354 355 356 357 358 359 359 353 352 352 352 348 348 344 343 339 341 342 340 340 342 343 345 349 353 351 351 351 352 350 349
338 338 339 334 332 332 334 336 338 339 344 350 354 353 352 355 355 355 355 355 358 359 360 361 360 354 352 353 352 348 343 343 341 343 340 341 345 343 342 344 349 353 351 351 350 351 350 349 349
336 339 336 333 331 331 334 336 337 339 340 344 352 355 354 355 354 355 356 356 358 360 361 362 361 355 354 353 353 349 345 341 340 344 340 351 350 346 348 349 349 352 350 349 350 349 347 346 348
335 336 334 334 331 332 336 336 336 336 339 341 348 354 356 354 357 356 357 358 359 361 363 363 361 357 355 352 351 349 346 342 343 343 347 350 352 350 351 352 351 350 347 349 349 350 349 348 348
333 335 335 333 333 332 333 334 337 336 337 341 342 348 353 355 357 358 358 359 359 361 363 363 360 357 357 352 349 349 346 347 346 348 351 350 352 351 350 351 351 352 351 345 346 348 347 348 347
334 334 333 331 331 332 333 334 338 337 336 336 339 344 351 355 356 359 359 360 359 360 362 363 360 358 356 349 348 348 345 345 347 350 351 352 350 350 349 348 348 348 346 346 347 348 346 348 350
329 331 331 330 331 332 333 332 335 335 333 337 342 346 348 354 355 359 359 360 360 360 362 362 360 358 352 349 348 348 347 349 350 350 353 351 350 348 346 348 349 349 349 349 350 351 351 350 350
329 331 331 331 331 331 332 332 332 334 338 337 345 349 349 353 355 357 359 361 361 361 361 361 359 357 352 349 349 351 351 352 351 352 351 346 344 345 347 347 348 347 348 349 349 350 350 350 349
329 331 333 332 331 330 333 333 331 337 338 338 343 352 351 352 355 359 362 363 362 361 360 359 358 356 352 349 349 352 354 353 353 351 346 344 342 343 346 346 344 346 345 345 346 348 348 349 350
329 330 331 333 332 332 334 330 331 336 337 344 346 346 351 352 356 359 363 363 361 360 359 358 357 356 352 348 350 353 354 351 349 348 346 344 342 341 344 344 343 344 343 344 344 345 346 347 347
330 330 330 331 332 332 331 332 335 334 337 345 349 353 353 354 357 361 362 361 360 360 360 359 357 355 351 348 350 353 352 349 349 347 345 342 343 343 343 343 343 343 342 343 342 343 343 343 344
331 332 330 331 332 334 331 333 337 336 338 348 354 359 359 357 359 361 362 360 359 360 360 358 356 354 350 349 350 351 346 347 346 344 344 342 342 342 342 342 342 342 342 341 341 341 342 342 344
330 332 332 332 335 334 335 335 337 337 344 349 353 358 358 355 357 360 360 360 360 359 358 357 355 352 351 349 346 341 344 344 343 343 341 341 341 341 341 341 341 341 341 340 340 340 341 342 343
331 332 331 333 334 334 334 334 332 341 344 347 353 354 354 354 355 359 360 361 358 357 356 355 355 355 352 345 339 335 335 344 343 341 340 340 340 340 340 341 340 339 339 338 338 337 337 339 340
Wind_Speed
13 11 13 12 6 9 17 19 17 17 15 12 12 3 9 15 6 4 20 18 20 20 17 15 15 14 13 14 13 11 11 12 14 13 11 11 10 10 9 9 6 5 6 5 5 7 7 7 8
12 12 13 8 6 12 14 17 17 14 9 8 10 5 15 16 16 18 16 18 20 19 16 15 15 13 13 12 12 12 11 12 12 13 10 10 9 9 8 7 6 4 7 4 5 5 7 7 7
11 11 11 1 11 14 14 15 13 14 11 10 14 18 13 6 12 12 21 18 16 17 18 16 15 12 12 11 11 11 11 12 13 11 11 9 7 8 7 6 5 3 3 4 5 4 6 6 7
7 9 8 10 14 15 17 13 17 16 14 9 15 14 15 14 9 21 21 17 15 12 20 16 14 12 12 12 11 10 10 10 10 10 10 8 6 6 5 4 3 3 3 3 4 4 6 6 7
13 6 5 14 15 15 13 7 16 17 16 16 17 16 15 13 18 22 20 18 17 15 17 15 14 13 13 12 11 10 9 9 8 8 7 8 7 6 5 4 3 2 3 3 4 5 6 7 8
8 3 3 13 13 14 8 10 16 13 11 12 14 15 13 15 18 20 18 15 15 14 15 12 11 12 12 12 13 11 10 9 8 7 6 6 6 6 5 4 4 4 3 4 6 6 8 8 9
10 12 6 9 17 13 14 4 11 12 16 12 5 14 10 14 17 18 15 14 14 15 15 12 10 9 9 9 9 9 10 8 7 8 7 6 6 5 5 5 5 5 5 5 6 7 8 8 9
12 9 8 10 15 20 6 15 8 14 13 8 6 8 11 16 16 17 15 12 11 14 13 11 11 11 9 7 8 8 8 8 6 7 8 8 7 7 7 7 6 7 7 7 6 7 8 7 10
16 8 9 8 6 19 9 16 13 10 10 11 7 9 18 20 18 18 16 14 12 10 11 14 12 11 9 9 9 9 7 8 8 7 8 7 8 10 11 9 10 7 8 8 8 7 8 9 11
6 4 9 13 6 17 6 17 6 13 9 10 10 14 19 19 18 18 16 16 15 13 11 13 16 13 9 12 12 9 9 10 9 10 9 8 8 12 4 7 9 8 9 12 12 10 9 8 11
10 6 7 8 7 5 15 12 6 12 8 11 13 15 16 17 16 16 15 15 14 13 11 9 9 12 12 9 10 10 11 10 10 9 9 8 8 8 8 8 7 10 13 15 13 12 9 11 12
12 4 5 9 7 4 3 14 11 6 9 10 15 16 15 15 14 15 14 13 14 12 11 12 9 9 8 5 9 9 8 8 12 12 10 7 7 6 8 10 11 9 14 11 14 8 6 12 10
15 5 4 6 5 3 4 4 9 5 9 11 15 15 15 14 15 14 14 13 13 13 11 10 10 9 9 10 8 8 8 8 10 5 6 8 7 9 8 9 13 10 13 12 8 5 4 9 10
3 3 4 6 9 5 10 10 8 12 11 14 15 15 13 13 15 14 13 13 12 12 11 11 10 10 10 11 9 9 10 12 9 7 8 5 5 8 11 14 13 17 16 12 14 12 11 11 12
7 12 12 11 10 8 9 1 14 14 14 15 15 14 13 12 15 15 14 13 12 11 11 11 10 9 10 10 9 12 13 15 14 9 5 8 8 9 10 14 21 23 14 12 8 10 12 11 12
15 18 14 14 8 6 8 16 44 16 14 14 15 14 14 13 14 14 14 13 13 11 11 11 10 10 8 6 6 9 11 14 12 17 11 9 5 8 12 24 32 24 13 9 12 12 13 13 12
15 3 15 13 3 4 9 4 12 12 13 13 14 14 14 14 14 15 14 14 14 13 11 11 10 11 6 3 4 9 15 16 13 14 13 11 6 8 13 27 28 25 8 10 15 15 12 13 15
13 12 23 2 5 8 11 10 9 8 11 13 15 14 14 14 15 16 15 14 13 13 12 11 11 10 6 3 2 4 6 15 12 11 10 9 7 12 20 26 23 8 4 13 18 16 15 18 17
14 11 8 2 5 9 12 12 8 13 7 10 13 15 14 15 16 17 16 14 13 13 12 11 11 9 6 5 3 1 3 9 10 8 8 6 10 16 18 18 13 7 9 12 9 10 15 16 15
10 10 10 6 2 9 7 10 10 2 7 7 12 15 16 16 15 16 16 15 14 13 12 10 10 10 7 4 1 2 3 5 5 8 6 6 8 10 12 10 8 7 11 7 10 12 15 18 13
14 15 12 9 8 11 8 12 9 9 6 6 8 12 16 17 18 15 18 16 15 13 12 11 12 10 7 5 3 3 7 3 7 7 7 7 7 7 5 5 6 6 7 13 12 13 14 16 14
16 16 15 5 9 13 8 7 12 13 11 11 9 11 12 17 16 16 16 16 14 12 11 11 13 12 10 8 6 6 8 6 6 3 3 4 4 3 4 5 7 8 11 13 12 12 15 13 14
16 4 8 12 13 15 9 7 6 7 7 7 2 0 11 17 16 16 15 16 14 12 12 13 13 12 11 10 8 8 8 7 5 5 3 3 3 2 3 4 5 6 7 8 8 9 10 10 11
14 7 7 10 13 13 12 11 7 3 8 4 8 4 10 15 15 15 16 15 14 14 13 13 14 12 12 10 9 8 7 3 3 3 5 3 4 1 4 5 6 6 7 5 6 7 8 10 10
11 13 9 11 12 12 4 3 8 6 8 4 5 7 9 13 14 13 15 17 17 16 14 14 14 13 12 11 11 8 6 6 6 5 1 3 4 4 6 5 6 6 5 5 5 6 8 7 5
15 17 11 12 8 5 8 5 4 9 6 5 7 8 12 11 12 14 15 17 18 17 15 14 15 14 14 14 12 8 9 8 5 2 2 4 4 4 7 4 4 5 6 6 6 6 6 9 8
16 16 18 11 11 9 8 11 10 8 8 5 10 10 10 10 11 13 15 17 18 17 16 14 13 13 13 14 13 10 10 7 6 4 3 4 2 4 2 2 2 4 6 7 8 7 8 8 8
13 7 12 8 11 12 8 2 8 9 10 10 10 9 9 9 10 11 13 17 16 15 14 12 13 13 13 12 10 9 7 6 6 5 3 5 3 3 2 3 4 5 6 8 8 8 10 11 8
11 12 10 15 7 6 6 6 13 9 12 11 8 8 9 9 9 9 12 16 16 15 13 11 11 11 10 10 8 3 11 10 7 6 6 5 4 3 3 4 6 7 8 8 8 10 12 12 13
20 16 16 10 12 7 11 1 9 11 8 10 9 7 4 4 6 9 11 15 14 14 14 11 10 10 10 11 14 10 12 7 8 7 7 6 5 4 4 5 7 8 8 9 10 12 13 13 13
Wind_Direction
190 186 211 227 241 62 56 57 51 41 53 51 75 125 138 109 101 68 122 121 130 125 136 140 142 138 137 139 143 153 158 156 160 157 151 147 138 136 133 132 129 122 137 135 133 134 126 128 128
185 199 232 272 55 64 61 56 52 49 37 52 38 353 72 52 80 109 110 130 129 126 136 142 149 146 143 145 147 147 152 158 164 157 156 156 145 142 135 141 169 106 126 120 127 136 132 136 137
247 228 266 213 50 59 59 54 81 65 46 43 79 43 27 99 91 101 124 135 124 135 131 141 148 151 147 149 149 148 149 155 162 160 158 162 161 151 156 168 182 198 143 93 129 138 145 146 145
216 225 252 68 71 69 65 49 60 63 76 65 103 97 75 94 134 122 135 134 136 125 123 140 147 150 148 150 152 154 154 153 155 162 163 163 175 164 168 176 187 180 178 157 130 156 160 156 153
249 268 271 90 72 81 76 66 57 63 58 48 81 86 90 88 106 133 138 138 139 112 120 137 151 156 156 157 156 157 155 157 157 161 168 171 164 171 177 170 172 179 148 159 178 193 179 178 164
264 194 174 81 95 101 102 92 81 75 81 101 103 90 89 119 132 140 144 147 140 135 138 142 154 161 162 164 164 167 169 169 167 166 175 179 171 175 178 185 187 172 170 164 179 195 191 184 177
252 288 41 65 101 70 86 46 68 76 76 70 55 88 123 157 135 144 149 154 142 150 146 148 159 165 167 164 171 172 173 175 174 170 174 188 195 196 205 205 203 188 182 182 188 196 204 203 193
287 316 41 143 83 91 119 66 76 73 80 101 305 123 158 130 148 147 150 148 163 150 143 155 157 165 173 182 191 185 184 181 188 183 184 201 211 205 212 224 222 200 195 190 190 191 196 198 197
277 49 306 101 90 110 144 91 71 104 110 58 50 52 123 141 149 153 155 158 167 167 156 153 176 169 178 187 193 191 205 194 207 217 200 199 216 205 211 222 213 213 200 198 197 191 194 202 206
174 154 249 43 65 97 63 92 121 110 121 115 102 98 125 148 157 159 166 167 175 177 175 159 175 164 185 199 177 199 203 210 204 206 197 215 227 223 119 196 228 227 217 210 198 195 198 201 206
244 215 108 119 44 311 124 128 156 131 127 128 139 141 148 154 163 165 177 171 179 180 174 196 183 167 191 206 177 199 213 212 208 207 216 229 259 240 235 232 225 224 233 224 207 175 196 202 218
267 59 337 83 132 163 144 105 118 60 71 116 136 151 155 164 167 170 179 169 177 179 189 191 198 192 218 212 208 201 227 203 228 207 212 236 247 247 223 237 258 211 245 254 214 165 201 193 202
250 155 173 152 112 27 94 142 94 153 122 127 141 156 162 167 167 170 173 174 182 179 193 192 201 204 216 224 226 206 226 224 238 235 222 232 252 289 279 269 254 252 249 272 286 269 198 211 215
96 239 189 191 117 194 234 159 176 136 144 144 155 164 171 168 167 166 173 175 185 183 191 191 196 205 218 228 240 240 232 233 214 228 214 225 238 264 270 293 285 259 234 244 229 222 229 223 231
225 233 199 191 170 205 246 133 178 129 160 162 165 171 171 171 166 171 178 180 185 184 197 194 196 206 220 236 246 244 231 222 209 246 254 239 250 265 266 268 269 269 264 222 259 236 231 237 244
242 239 228 150 173 210 252 133 257 147 170 174 174 175 173 175 174 175 177 181 183 195 193 198 195 202 215 237 265 263 227 228 225 241 246 246 257 247 269 249 251 237 239 241 233 230 237 246 242
217 66 302 178 141 327 254 250 109 146 170 179 183 183 177 175 182 177 181 187 185 197 196 196 195 203 210 249 268 271 248 223 239 238 229 225 230 295 267 257 269 260 204 237 243 228 225 240 250
226 208 199 226 143 215 249 266 143 157 184 188 188 190 183 182 187 180 188 188 188 193 200 197 200 202 206 252 277 242 283 210 230 255 242 238 219 247 246 260 268 285 271 231 236 223 230 234 228
321 226 3 55 83 261 265 245 246 153 197 197 185 188 193 189 181 179 185 189 191 191 196 201 189 197 207 257 164 226 225 212 223 266 263 266 225 224 231 233 253 251 254 271 300 279 254 260 273
275 274 258 226 213 285 261 241 224 138 197 219 187 189 199 191 176 176 180 189 197 191 192 200 198 196 211 228 299 360 182 224 235 272 265 242 238 220 215 229 240 256 267 275 254 263 266 268 229
249 261 257 256 173 244 274 252 185 206 210 195 274 192 192 208 174 181 179 190 195 193 190 192 184 190 195 194 149 123 156 192 230 233 236 241 237 233 241 251 263 271 266 266 261 254 252 266 278
254 244 257 254 248 260 202 284 189 191 189 187 233 204 198 194 183 171 179 189 197 188 186 183 177 185 181 174 177 175 175 195 203 218 216 209 227 258 271 276 273 275 274 288 285 278 272 270 263
251 289 222 241 262 269 252 240 112 176 231 182 101 272 176 178 184 171 179 179 187 179 179 176 177 182 176 176 180 192 213 188 203 185 193 241 250 281 317 315 305 303 292 288 290 287 280 271 262
243 248 244 253 254 257 227 264 275 306 114 132 109 143 158 169 178 171 168 160 174 172 175 173 175 177 174 181 177 202 207 226 155 202 265 282 300 325 349 331 338 328 304 316 319 315 304 292 272
230 221 221 220 226 242 71 251 289 94 77 25 93 156 164 157 164 163 157 171 171 170 173 175 179 179 179 186 184 190 211 206 190 201 279 338 308 358 43 341 337 337 333 331 336 335 332 341 319
219 238 248 259 266 255 148 229 205 79 110 130 175 181 143 155 160 167 166 175 172 170 174 179 177 179 183 186 186 186 186 192 192 181 44 345 5 2 11 332 337 358 8 13 26 23 3 2 3
193 228 257 294 277 284 286 157 150 156 132 140 127 149 140 135 148 157 169 173 171 173 175 175 173 181 187 185 188 198 194 187 103 110 151 98 20 20 43 329 11 22 30 30 46 36 24 23 14
271 221 234 235 273 266 276 131 109 163 165 129 137 136 138 149 146 163 170 171 169 170 168 165 168 183 185 190 205 215 197 144 121 128 95 82 66 33 24 44 52 50 50 44 55 50 44 40 29
207 246 246 276 301 300 243 233 116 111 121 125 134 141 156 151 156 165 174 164 172 158 156 154 160 176 182 126 124 13 110 117 131 141 116 96 84 88 90 80 75 65 61 56 58 57 49 44 40
245 217 232 244 232 263 295 69 152 111 119 138 124 138 135 158 154 162 172 163 166 156 151 141 144 145 145 154 141 134 136 161 149 142 116 113 100 99 90 84 82 79 70 64 63 62 53 46 39